Search the data

BODC Cruise Metadata Report for RV Lough Foyle (74LG) cruise LF2/89

Introduction

This report collates information from the BODC cruise inventory and oceanographic databases. It presents

Cruise Inventory Information

Long name RV Lough Foyle (74LG) cruise LF2/89
Short name LF2/89
Objectives and Narrative Working the DML Rockall Trough CTD section (Ellett Line).
Ship RV Lough Foyle
Departure Port
Departure Date 1989-08-04
Arrival Port
Arrival Date 1989-08-10
Principal Scientist(s) David J Ellett (Dunstaffnage Marine Laboratory)
Responsible Organisation University of Aberdeen, Oceanlab
Associated Project(s) Ellett Line
IHB Sea Areas Visited
Marsden Squares Visited 181;1/181;2/181;4/182;3
Work Area Description
Work Area Bounding Polygon 50N,15W; 60N,15W; 60N,0E; 50N,0E; 50N,15W
Southern Limit 50N
Northern Limit 60N
Western Limit 15W
Eastern Limit 0E

Cruise Inventory Datasets

Physical oceanography  
CTD stations Quantity: number of stations = 111
Description:  

Cruise Inventory Mooring/Buoy Operations

No information on datasets is currently available

Summary of BODC Data Holdings for the Cruise

National Oceanographic Database

Summary

# Series Instrument Description Parameters
111 CTD/STD cast Salinity of the water column
Temperature of the water column
Vertical spatial coordinates
1 Paddle wheel current meter Date and time
Horizontal velocity of the water column (currents)
Moored instrument depth
Reference numbers
Temperature of the water column
1 Savonius rotor current meter Date and time
Horizontal velocity of the water column (currents)
Moored instrument depth
Reference numbers
Salinity of the water column
Temperature of the water column

Note: Parameter terms are taken from the BODC Parameter Discovery Vocabulary XML (SKOS)

Full List

BODC Reference Instrument Description Date/Time Location  
317506 CTD/STD cast 1989-08-04 14:26Z 56° 40' N, 6° 7' W Click for more
317518 CTD/STD cast 1989-08-04 17:48Z 56° 41' N, 6° 16' W Click for more
317531 CTD/STD cast 1989-08-04 18:31Z 56° 44' N, 6° 27' W Click for more
317543 CTD/STD cast 1989-08-04 20:03Z 56° 44' N, 6° 46' W Click for more
317555 CTD/STD cast 1989-08-04 21:24Z 56° 44' N, 7° 0' W Click for more
317567 CTD/STD cast 1989-08-04 23:45Z 56° 43' N, 7° 20' W Click for more
317579 CTD/STD cast 1989-08-05 00:36Z 56° 43' N, 7° 30' W Click for more
317580 CTD/STD cast 1989-08-05 01:22Z 56° 43' N, 7° 40' W Click for more
317592 CTD/STD cast 1989-08-05 03:15Z 56° 47' N, 8° 0' W Click for more
317611 CTD/STD cast 1989-08-05 04:40Z 56° 50' N, 8° 19' W Click for more
317623 CTD/STD cast 1989-08-05 05:30Z 56° 53' N, 8° 30' W Click for more
317635 CTD/STD cast 1989-08-05 07:17Z 56° 57' N, 8° 46' W Click for more
317647 CTD/STD cast 1989-08-05 08:20Z 57° 0' N, 9° 0' W Click for more
317659 CTD/STD cast 1989-08-05 09:54Z 57° 3' N, 9° 13' W Click for more
317660 CTD/STD cast 1989-08-05 11:00Z 57° 6' N, 9° 25' W Click for more
317672 CTD/STD cast 1989-08-05 12:36Z 57° 9' N, 9° 42' W Click for more
317684 CTD/STD cast 1989-08-05 14:34Z 57° 14' N, 10° 3' W Click for more
317696 CTD/STD cast 1989-08-05 16:36Z 57° 18' N, 10° 22' W Click for more
317703 CTD/STD cast 1989-08-05 19:12Z 57° 22' N, 10° 40' W Click for more
317715 CTD/STD cast 1989-08-05 20:57Z 57° 24' N, 10° 52' W Click for more
317727 CTD/STD cast 1989-08-05 22:14Z 57° 27' N, 11° 4' W Click for more
317739 CTD/STD cast 1989-08-05 23:23Z 57° 28' N, 11° 19' W Click for more
317740 CTD/STD cast 1989-08-06 00:46Z 57° 28' N, 11° 31' W Click for more
317752 CTD/STD cast 1989-08-06 02:52Z 57° 29' N, 11° 51' W Click for more
317764 CTD/STD cast 1989-08-06 05:17Z 57° 30' N, 12° 15' W Click for more
317776 CTD/STD cast 1989-08-06 07:35Z 57° 31' N, 12° 37' W Click for more
317788 CTD/STD cast 1989-08-06 09:22Z 57° 32' N, 12° 52' W Click for more
317807 CTD/STD cast 1989-08-06 10:26Z 57° 33' N, 13° 0' W Click for more
317819 CTD/STD cast 1989-08-06 11:49Z 57° 34' N, 13° 20' W Click for more
317820 CTD/STD cast 1989-08-06 13:03Z 57° 34' N, 13° 37' W Click for more
317832 CTD/STD cast 1989-08-07 05:46Z 55° 46' N, 9° 16' W Click for more
317844 CTD/STD cast 1989-08-07 07:47Z 55° 46' N, 8° 40' W Click for more
317856 CTD/STD cast 1989-08-07 09:57Z 55° 46' N, 8° 0' W Click for more
317868 CTD/STD cast 1989-08-07 11:09Z 55° 46' N, 7° 41' W Click for more
317881 CTD/STD cast 1989-08-07 12:01Z 55° 46' N, 7° 28' W Click for more
317893 CTD/STD cast 1989-08-07 12:51Z 55° 46' N, 7° 16' W Click for more
317900 CTD/STD cast 1989-08-07 13:38Z 55° 46' N, 7° 4' W Click for more
317912 CTD/STD cast 1989-08-07 14:16Z 55° 46' N, 6° 55' W Click for more
317924 CTD/STD cast 1989-08-07 14:59Z 55° 46' N, 6° 46' W Click for more
317936 CTD/STD cast 1989-08-07 15:38Z 55° 46' N, 6° 37' W Click for more
317948 CTD/STD cast 1989-08-07 16:14Z 55° 46' N, 6° 30' W Click for more
317961 CTD/STD cast 1989-08-07 17:58Z 55° 42' N, 6° 22' W Click for more
317973 CTD/STD cast 1989-08-07 18:36Z 55° 37' N, 6° 25' W Click for more
317985 CTD/STD cast 1989-08-07 19:18Z 55° 33' N, 6° 30' W Click for more
317997 CTD/STD cast 1989-08-07 19:59Z 55° 28' N, 6° 33' W Click for more
318000 CTD/STD cast 1989-08-07 20:41Z 55° 23' N, 6° 37' W Click for more
318012 CTD/STD cast 1989-08-07 21:24Z 55° 18' N, 6° 41' W Click for more
318024 CTD/STD cast 1989-08-07 22:04Z 55° 13' N, 6° 45' W Click for more
318036 CTD/STD cast 1989-08-08 00:24Z 55° 9' N, 6° 0' W Click for more
318048 CTD/STD cast 1989-08-08 00:57Z 55° 11' N, 5° 56' W Click for more
318061 CTD/STD cast 1989-08-08 01:27Z 55° 13' N, 5° 52' W Click for more
318073 CTD/STD cast 1989-08-08 02:02Z 55° 15' N, 5° 47' W Click for more
318085 CTD/STD cast 1989-08-08 02:30Z 55° 16' N, 5° 43' W Click for more
318097 CTD/STD cast 1989-08-08 06:22Z 54° 40' N, 5° 30' W Click for more
318104 CTD/STD cast 1989-08-08 06:49Z 54° 41' N, 5° 25' W Click for more
318116 CTD/STD cast 1989-08-08 07:21Z 54° 43' N, 5° 20' W Click for more
318128 CTD/STD cast 1989-08-08 07:53Z 54° 45' N, 5° 15' W Click for more
318141 CTD/STD cast 1989-08-08 08:31Z 54° 46' N, 5° 10' W Click for more
318153 CTD/STD cast 1989-08-08 09:03Z 54° 48' N, 5° 4' W Click for more
318165 CTD/STD cast 1989-08-08 11:24Z 54° 40' N, 4° 30' W Click for more
318177 CTD/STD cast 1989-08-08 11:55Z 54° 35' N, 4° 29' W Click for more
318189 CTD/STD cast 1989-08-08 12:24Z 54° 32' N, 4° 28' W Click for more
318190 CTD/STD cast 1989-08-08 12:56Z 54° 28' N, 4° 28' W Click for more
318208 CTD/STD cast 1989-08-08 13:25Z 54° 25' N, 4° 28' W Click for more
318221 CTD/STD cast 1989-08-08 14:38Z 54° 19' N, 4° 13' W Click for more
318233 CTD/STD cast 1989-08-08 15:25Z 54° 22' N, 4° 3' W Click for more
318245 CTD/STD cast 1989-08-08 16:09Z 54° 25' N, 3° 57' W Click for more
318257 CTD/STD cast 1989-08-08 16:52Z 54° 28' N, 3° 57' W Click for more
318269 CTD/STD cast 1989-08-08 17:28Z 54° 30' N, 3° 42' W Click for more
318270 CTD/STD cast 1989-08-08 23:08Z 54° 55' N, 5° 13' W Click for more
318282 CTD/STD cast 1989-08-08 23:50Z 55° 1' N, 5° 19' W Click for more
318294 CTD/STD cast 1989-08-09 00:36Z 55° 4' N, 5° 25' W Click for more
318301 CTD/STD cast 1989-08-09 01:20Z 55° 9' N, 5° 31' W Click for more
318313 CTD/STD cast 1989-08-09 02:08Z 55° 13' N, 5° 38' W Click for more
318325 CTD/STD cast 1989-08-09 04:47Z 55° 35' N, 5° 45' W Click for more
318337 CTD/STD cast 1989-08-09 05:05Z 55° 36' N, 5° 49' W Click for more
318349 CTD/STD cast 1989-08-09 05:28Z 55° 37' N, 5° 52' W Click for more
318350 CTD/STD cast 1989-08-09 05:54Z 55° 38' N, 5° 57' W Click for more
318362 CTD/STD cast 1989-08-09 06:20Z 55° 39' N, 6° 1' W Click for more
318374 CTD/STD cast 1989-08-09 08:55Z 56° 5' N, 5° 52' W Click for more
318386 CTD/STD cast 1989-08-09 09:24Z 56° 7' N, 5° 55' W Click for more
318398 CTD/STD cast 1989-08-09 09:57Z 56° 10' N, 5° 58' W Click for more
318405 CTD/STD cast 1989-08-09 10:28Z 56° 13' N, 6° 2' W Click for more
318417 CTD/STD cast 1989-08-09 10:57Z 56° 16' N, 6° 4' W Click for more
318429 CTD/STD cast 1989-08-09 13:36Z 55° 52' N, 6° 28' W Click for more
318430 CTD/STD cast 1989-08-09 14:09Z 55° 57' N, 6° 34' W Click for more
318442 CTD/STD cast 1989-08-09 14:50Z 56° 1' N, 6° 40' W Click for more
318454 CTD/STD cast 1989-08-09 15:34Z 56° 4' N, 6° 47' W Click for more
318466 CTD/STD cast 1989-08-09 16:19Z 56° 9' N, 6° 52' W Click for more
318478 CTD/STD cast 1989-08-09 17:12Z 56° 13' N, 6° 59' W Click for more
318491 CTD/STD cast 1989-08-09 17:51Z 56° 16' N, 7° 4' W Click for more
318509 CTD/STD cast 1989-08-09 22:42Z 57° 5' N, 7° 0' W Click for more
318510 CTD/STD cast 1989-08-09 23:31Z 57° 8' N, 7° 10' W Click for more
318522 CTD/STD cast 1989-08-10 02:09Z 57° 36' N, 7° 4' W Click for more
318534 CTD/STD cast 1989-08-10 02:37Z 57° 34' N, 6° 59' W Click for more
318546 CTD/STD cast 1989-08-10 03:07Z 57° 34' N, 6° 54' W Click for more
318558 CTD/STD cast 1989-08-10 03:44Z 57° 33' N, 6° 48' W Click for more
318571 CTD/STD cast 1989-08-10 04:11Z 57° 32' N, 6° 44' W Click for more
318583 CTD/STD cast 1989-08-10 04:39Z 57° 31' N, 6° 40' W Click for more
318595 CTD/STD cast 1989-08-10 06:37Z 57° 18' N, 6° 32' W Click for more
318602 CTD/STD cast 1989-08-10 07:07Z 57° 16' N, 6° 33' W Click for more
318614 CTD/STD cast 1989-08-10 07:36Z 57° 13' N, 6° 34' W Click for more
318626 CTD/STD cast 1989-08-10 08:13Z 57° 10' N, 6° 38' W Click for more
318638 CTD/STD cast 1989-08-10 09:03Z 57° 6' N, 6° 44' W Click for more
318651 CTD/STD cast 1989-08-10 09:48Z 57° 2' N, 6° 49' W Click for more
318663 CTD/STD cast 1989-08-10 10:40Z 56° 59' N, 6° 37' W Click for more
318675 CTD/STD cast 1989-08-10 11:24Z 56° 56' N, 6° 29' W Click for more
318687 CTD/STD cast 1989-08-10 12:03Z 56° 54' N, 6° 21' W Click for more
318699 CTD/STD cast 1989-08-10 12:39Z 56° 51' N, 6° 12' W Click for more
318706 CTD/STD cast 1989-08-10 13:15Z 56° 49' N, 6° 4' W Click for more
318718 CTD/STD cast 1989-08-10 13:50Z 56° 48' N, 5° 55' W Click for more
1804044 Savonius rotor current meter 1989-08-04 14:00Z to 1989-11-20 09:29Z 56° 37' N, 6° 24' W Click for more
1804056 Paddle wheel current meter 1989-08-04 14:00Z to 1989-11-20 09:29Z 56° 37' N, 6° 24' W Click for more

Project Database

No data currently held for this cruise in the BODC Project Database

References

Track Charts

No track charts currently available

Reports

No reports currently available